Penn Yan, NY

4:44 AM EDT on May 27, 2017 (GMT -0400)
Penn Yan

Weather History for KPEO - January, 2014

Change the Weather History Date:

Friday, January 10, 2014

  Actual Average (KITH) Record (KITH)
Temperature  
Mean Temperature 32 °F -  
Max Temperature 39 °F 27 °F 54 °F (1939)
Min Temperature 25 °F 12 °F -15 °F (1968)
Degree Days  
Heating Degree Days 33    
Moisture  
Dew Point 25 °F    
Average Humidity 82    
Maximum Humidity 89    
Minimum Humidity 65    
Precipitation  
Precipitation 0.02 in - - ()
Sea Level Pressure  
Sea Level Pressure 30.29 in    
Wind  
Wind Speed 12 mph (SSW)    
Max Wind Speed 16 mph    
Max Gust Speed 25 mph    
Visibility 5 miles    
Events Snow    
Averages and records for this station are not official NWS values.
T = Trace of Precipitation, MM = Missing Value Source: NWS Daily Summary

Daily Weather History Graph

Daily Weather History Graph

Search for Another Location

Airport or City:

Trip Planner

Search our weather history database for the weather conditions in past years. The results will help you decide how hot, cold, wet, or windy it might be!

Date:

Astronomy

Jan. 10, 2014 Rise Set
Actual Time 7:37 AM EST 4:54 PM EST
Civil Twilight 7:05 AM EST 5:25 PM EST
Nautical Twilight 6:30 AM EST 6:01 PM EST
Astronomical Twilight 5:56 AM EST 6:35 PM EST
Moon 12:58 PM EST (1/10) 2:40 AM EST (1/10)
Length of Visible Light 10h 19m
Length of Day
9h 16m
Waxing Gibbous, 75% of the Moon is Illuminated
Jan 10
Waxing Gibbous
Jan 15
Full
Jan 24
Last Quarter
Jan 30
New
Feb 6
First Quarter

Hourly Weather History & Observations

Time (EST) Temp. Windchill Dew Point Humidity Pressure Visibility Wind Dir Wind Speed Gust Speed Precip Events Conditions
12:22 AM 26.1 °F 13.6 °F 19.0 °F 75% 30.37 in 2.0 mi SSW 16.1 mph 25.3 mph 0.00 in Snow Light Snow
12:29 AM 26.1 °F 14.5 °F 21.0 °F 81% 30.37 in 1.0 mi SSW 13.8 mph - 0.00 in Snow Light Snow
12:53 AM 25.0 °F 13.6 °F 21.9 °F 88% 30.41 in 1.0 mi SSW 12.7 mph - 0.00 in Snow Light Snow
1:10 AM 25.0 °F 14.8 °F 21.9 °F 88% 30.36 in 0.8 mi South 10.4 mph - 0.01 in Snow Light Snow
1:25 AM 25.0 °F 15.5 °F 21.9 °F 88% 30.35 in 1.5 mi South 9.2 mph - 0.01 in Snow Light Snow
1:31 AM 26.1 °F 16.8 °F 21.9 °F 84% 30.36 in 2.5 mi South 9.2 mph - 0.01 in Snow Light Snow
1:39 AM 26.1 °F 16.8 °F 21.9 °F 84% 30.36 in 5.0 mi SSW 9.2 mph - 0.01 in Snow Light Snow
1:53 AM 26.1 °F 18.4 °F 23.0 °F 88% 30.40 in 8.0 mi South 6.9 mph - 0.01 in   Overcast
2:53 AM 27.0 °F 15.6 °F 21.0 °F 78% 30.40 in 5.0 mi SSW 13.8 mph 18.4 mph 0.00 in Snow Light Snow
3:20 AM 27.0 °F 15.6 °F 21.9 °F 81% 30.35 in 2.0 mi SSW 13.8 mph - 0.00 in Snow Light Snow
3:24 AM 27.0 °F 16.1 °F 21.9 °F 81% 30.35 in 1.8 mi SSW 12.7 mph - 0.00 in Snow Light Snow
3:53 AM 27.0 °F 15.2 °F 23.0 °F 85% 30.39 in 1.2 mi SSW 15.0 mph 24.2 mph 0.00 in Snow Light Snow
4:53 AM 27.0 °F 15.2 °F 24.1 °F 89% 30.37 in 1.2 mi SSW 15.0 mph - 0.00 in Snow Light Snow
5:20 AM 27.0 °F 15.6 °F 24.1 °F 89% 30.31 in 2.0 mi SSW 13.8 mph - 0.00 in Snow Light Snow
5:25 AM 27.0 °F 16.1 °F 24.1 °F 89% 30.31 in 3.0 mi SSW 12.7 mph - 0.00 in Snow Light Snow
5:53 AM 28.0 °F 18.1 °F 23.0 °F 81% 30.36 in 6.0 mi SSW 11.5 mph - 0.00 in   Haze
6:32 AM 28.0 °F 17.5 °F 23.0 °F 81% 30.31 in 2.0 mi South 12.7 mph - 0.00 in Snow Light Snow
6:35 AM 28.0 °F 18.1 °F 23.0 °F 81% 30.30 in 1.5 mi SSW 11.5 mph - 0.01 in Snow Light Snow
6:40 AM 27.0 °F 17.3 °F 24.1 °F 89% 30.30 in 0.8 mi South 10.4 mph - 0.01 in Snow Light Snow
6:53 AM 27.0 °F 16.1 °F 24.1 °F 89% 30.35 in 1.2 mi SSW 12.7 mph - 0.01 in Snow Light Snow
6:59 AM 27.0 °F 16.7 °F 24.1 °F 89% 30.30 in 2.5 mi SSW 11.5 mph - 0.00 in Snow Light Snow
7:02 AM 27.0 °F 16.7 °F 24.1 °F 89% 30.29 in 1.8 mi SSW 11.5 mph - 0.00 in Snow Light Snow
7:14 AM 27.0 °F 15.6 °F 24.1 °F 89% 30.29 in 2.0 mi SSW 13.8 mph - 0.00 in Snow Light Snow
7:29 AM 28.0 °F 17.0 °F 25.0 °F 88% 30.29 in 3.0 mi SSW 13.8 mph - 0.00 in Snow Light Snow
7:53 AM 28.0 °F 18.1 °F 24.1 °F 85% 30.33 in 6.0 mi SSW 11.5 mph - 0.00 in   Overcast
8:24 AM 28.9 °F 18.6 °F 23.0 °F 78% 30.29 in 2.0 mi SSW 12.7 mph - 0.00 in Snow Light Snow
8:31 AM 28.9 °F 18.6 °F 24.1 °F 82% 30.29 in 1.0 mi SSW 12.7 mph - 0.00 in Snow Light Snow
8:38 AM 28.9 °F 17.7 °F 24.1 °F 82% 30.29 in 3.0 mi SSW 15.0 mph - 0.00 in Snow Light Snow
8:53 AM 28.9 °F 17.3 °F 24.1 °F 82% 30.34 in 5.0 mi SSW 16.1 mph - 0.00 in   Haze
9:53 AM 30.0 °F 19.1 °F 24.1 °F 79% 30.35 in 6.0 mi SSW 15.0 mph - 0.00 in   Haze
10:53 AM 32.0 °F 21.6 °F 25.0 °F 75% 30.33 in 8.0 mi SSW 15.0 mph - N/A   Mostly Cloudy
11:53 AM 33.1 °F 24.9 °F 26.1 °F 75% 30.30 in 8.0 mi SSW 10.4 mph 19.6 mph N/A   Overcast
12:53 PM 35.1 °F 29.3 °F 27.0 °F 72% 30.26 in 9.0 mi South 6.9 mph - N/A   Overcast
1:53 PM 37.0 °F 31.6 °F 27.0 °F 67% 30.24 in 10.0 mi South 6.9 mph - N/A   Overcast
2:53 PM 39.0 °F 32.8 °F 28.0 °F 65% 30.23 in 10.0 mi South 9.2 mph - N/A   Overcast
3:53 PM 39.0 °F 33.4 °F 28.9 °F 67% 30.22 in 10.0 mi SSW 8.1 mph - N/A   Overcast
4:53 PM 37.9 °F 30.9 °F 30.9 °F 76% 30.20 in 10.0 mi SSW 10.4 mph - N/A   Overcast
5:53 PM 37.0 °F 28.9 °F 30.9 °F 79% 30.19 in 10.0 mi SSW 12.7 mph - N/A   Overcast
6:53 PM 37.0 °F 29.8 °F 30.9 °F 79% 30.19 in 10.0 mi SSW 10.4 mph - N/A   Mostly Cloudy
7:53 PM 36.0 °F 30.3 °F 32.0 °F 86% 30.17 in 10.0 mi SSW 6.9 mph - N/A   Partly Cloudy
8:41 PM 37.0 °F 31.6 °F 33.1 °F 86% 30.13 in 9.0 mi South 6.9 mph - N/A   Mostly Cloudy
8:53 PM 37.0 °F 31.0 °F 33.1 °F 86% 30.16 in 9.0 mi SSW 8.1 mph - N/A   Overcast
9:53 PM 37.0 °F 32.4 °F 34.0 °F 89% 30.12 in 9.0 mi South 5.8 mph - N/A   Overcast
10:53 PM 36.0 °F 29.0 °F 33.1 °F 89% 30.08 in 6.0 mi SSE 9.2 mph - N/A   Overcast
11:53 PM 37.9 °F 30.5 °F 34.0 °F 86% 30.03 in 8.0 mi SSW 11.5 mph - N/A   Overcast